Weather in Sovkhozny

Russia / Sverdlovsk Oblast     56°33′19″N   61°26′37″E
temp.,
°C
wind,
m/s
gust,
m/s
humid.,
%
clouds,
%
prec.,
mm/h
press.,
hPa
HPBL,
m
26 february, fri
fri2623:00−23w339660 0.0 102924
02:00−25wnw229523 0.0 102820
05:00−26w229311 0.0 102919
08:00−27sw12940 0.0 102819
11:00−21s23900 0.0 1028182
14:00−17sse34880 0.0 1027328
17:00−19sse369413 0.0 1026213
20:00−25sse359936 0.0 102680
27 february, sat
sat2723:00−27sse3410043 0.0 102568
02:00−29sse359929 0.0 102483
05:00−28sse499826 0.0 1023183
08:00−28sse4109894 0.0 1021221
11:00−25se599797 0.0 1020322
14:00−21se61096100 0.1 1017419
17:00−19se61196100 0.4 1015589
20:00−18ese61296100 0.8 1013533
28 february, sun
sun2823:00−16ese61295100 1.3 1011466
02:00−13e51095100 0.6 1010486
05:00−12e5995100 1.3 1009455
08:00−12e51095100 0.6 1008442
11:00−12e5893100 1.1 1008547
14:00−11ene6892100 0.4 1008627
17:00−12ne6994100 0.9 1009561
20:00−15ne51095100 0.5 1010432
1 march, mon
mon123:00−16nne5995100 0.9 1012374
02:00−18nne4896100 0.3 1013342
05:00−18nne4896100 0.6 1015347
08:00−19n4897100 0.3 1016320
11:00−18n4693100 0.4 1017356
14:00−16nnw3590100 0.0 1018438
17:00−15nw2491100 0.1 1019283
20:00−20nw239791 0.0 102020
2 march, tue
tue223:00−21w239645 0.0 102120
02:00−21w34970 0.0 101947
05:00−21wsw34940 0.0 101950
08:00−21wsw34930 0.0 101787
11:00−15sw488833 0.0 1015336
14:00−10sw598298 0.0 1012580
17:00−9sw51083100 0.0 1010585
20:00−10sw41287100 0.1 1009542